This demonstration page uses our WeatherBlox Daily Observations layout. Learn more.

Left ArrowRight Arrow

34.02893, -84.19858

Hourly Observations for August 27, 2022

Temp ( °F °C ) Dew Point ( °F °C ) Humidity (%) Winds ( mph kmh ) Pressure ( in mb ) Visibility ( mi km ) Precip ( " mm )
12:53 am 00:53 Clear 75 23.9 73 22.8 94 94 SE 3 6 29.99 1016 10 16 0.00 0.00
1:53 am 01:53 Clear 74 23.3 73 22.8 97 97 Calm 29.98 1015 10 16 0.00 0.00
2:53 am 02:53 Clear 73 22.8 72 22.2 96 96 Calm 29.96 1015 10 16 0.00 0.00
3:53 am 03:53 Clear 73 22.8 72 22.2 96 96 W 3 6 29.95 1014 10 16 0.00 0.00
4:53 am 04:53 Clear 73 22.8 72 22.2 96 96 Calm 29.94 1014 10 16 0.00 0.00
5:53 am 05:53 Clear 71 21.7 71 21.7 100 100 Calm 29.95 1014 9 14 0.00 0.00
6:53 am 06:53 Mostly Clear 71 21.7 71 21.7 100 100 Calm 29.97 1015 7 11 0.00 0.00
7:53 am 07:53 Sunny with Mist and Fog 73 22.8 72 22.2 96 96 Calm 29.99 1016 5 8 0.00 0.00
8:53 am 08:53 Sunny 77 25 73 22.8 88 88 Calm 29.99 1016 10 16 0.00 0.00
9:32 am 09:32 Mostly Sunny 79 26.1 73 22.8 82 82 Calm 30.00 1016 10 16 0.00 0.00
9:53 am 09:53 Partly Cloudy 79 26.1 74 23.3 85 85 VRB 3 6 30.00 1016 10 16 0.00 0.00
10:53 am 10:53 Sunny 81 27.2 74 23.3 79 79 Calm 30.00 1016 10 16 0.00 0.00
11:53 am 11:53 Partly Cloudy 85 29.4 74 23.3 70 70 N 7 11 29.98 1015 10 16 0.00 0.00
12:53 pm 12:53 Partly Cloudy 84 28.9 71 21.7 65 65 Calm 29.96 1015 10 16 0.00 0.00
1:53 pm 13:53 Partly Cloudy 86 30 70 21.1 59 59 VRB 3 6 29.94 1014 10 16 0.00 0.00
2:53 pm 14:53 Mostly Sunny 87 30.6 74 23.3 65 65 SSW 8 13 29.93 1014 10 16 0.00 0.00
3:53 pm 15:53 Partly Cloudy 86 30 72 22.2 63 63 SSE 7 11 29.91 1013 10 16 0.00 0.00
4:53 pm 16:53 Partly Cloudy 80 26.7 77 25 90 90 Calm 29.90 1012 10 16 0.04 1.02
5:42 pm 17:42 Sunny with Nearby Thunderstorms 87 30.6 71 21.7 59 59 Calm 29.89 1012 10 16 0.00 0.00
5:53 pm 17:53 Sunny with Nearby Thunderstorms 85 29.4 73 22.8 68 68 Calm 29.89 1012 10 16 0.00 0.00
6:53 pm 18:53 Cloudy with Nearby Thunderstorms 82 27.8 71 21.7 69 69 VRB 3 6 29.90 1013 10 16 0.00 0.00
7:53 pm 19:53 Partly Cloudy with Nearby Thunderstorms 77 25 73 22.8 88 88 Calm 29.92 1013 10 16 0.02 0.51
8:53 pm 20:53 Clear 76 24.4 72 22.2 88 88 SE 3 6 29.92 1013 10 16 0.00 0.00
9:53 pm 21:53 Mostly Cloudy 74 23.3 72 22.2 94 94 Calm 29.95 1014 10 16 0.01 0.13
10:53 pm 22:53 Mostly Clear 73 22.8 72 22.2 96 96 Calm 29.96 1015 10 16 0.00 0.00
11:48 pm 23:48 Cloudy with Nearby Thunderstorms 75 24 73 23 94 94 Calm 29.98 1015 10 16 0.00 0.00
11:53 pm 23:53 Cloudy with Nearby Thunderstorms 74 23.3 73 22.8 97 97 VRB 5 7 29.97 1015 10 16 0.00 0.00

Powered by AerisWeather